Location: *
(51.1248°S, 108.4023°W)
Time: 20:58:27
(UTC+00:00)

Cosmos 2278 Rocket - Pass Details

Date: 29 October 2021
Orbit: 841 x 845 km, 71.0° (Epoch: 30 November)

Event Time Altitude Azimuth Distance (km) Brightness Sun altitude
Rises 10:30:13 0° 224° (SW) 3,436 5.3 -10.5°
Reaches altitude 10° 10:36:06 10° 177° (S) 2,501 5.2 -9.8°
Maximum altitude 10:36:21 10° 175° (S) 2,499 5.3 -9.7°
Drops below altitude 10° 10:36:37 10° 172° (S) 2,501 5.3 -9.7°
Sets 10:42:30 0° 125° (SE) 3,435 7.9 -8.9°
